Hourly Data Report for May 23, 2003

SHERBROOKE A
QUEBEC

45°26'00.000" N
71°41'00.000" W
241.40 m
7028124
71610
YSC

Download Data

Hourly Data (May 2003)
Hourly Data Report for May 23, 2003
TIME
LST
Temp Definition
°C
Dew Point Definition
°C
Rel Hum Definition
%
Precip. Amount Definition
mm

Wind Dir Definition
10's deg

Wind Spd Definition
km/h
Visibility Definition
km
Stn Press Definition
kPa
Hmdx Definition


Wind Chill Definition


Weather Definition


00:00 7.0 3.1 76   6 9 15.0 99.73      
01:00 6.4 3.4 81   6 9 15.0 99.70      
02:00 5.8 3.6 86   6 7 15.0 99.68      
03:00 5.8 3.7 86   5 7 15.0 99.69      
04:00 6.0 4.1 88   5 9 15.0 99.73      
05:00 6.7 4.6 86   5 9 15.0 99.78      
06:00 7.9 5.2 83   6 9 15.0 99.75      
07:00 9.6 5.5 76   5 11 24.1 99.74     Mostly Cloudy
08:00 12.2 5.6 64   8 9 24.1 99.74     Mostly Cloudy
09:00 14.8 6.6 58   6 11 24.1 99.71     Mainly Clear
10:00 16.2 6.7 53   3 7 24.1 99.66     Mainly Clear
11:00 16.8 6.1 49   35 9 24.1 99.62     Mainly Clear
12:00 18.4 7.2 48   32 6 24.1 99.56     Mainly Clear
13:00 18.8 7.7 48   3 9 24.1 99.51     Mainly Clear
14:00 20.2 8.1 46   2 13 24.1 99.45     Mainly Clear
15:00 19.5 8.4 49   36 11 24.1 99.40     Mostly Cloudy
16:00 18.4 7.6 49   3 19 24.1 99.38     Mostly Cloudy
17:00 18.6 7.7 49   5 17 15.0 99.35      
18:00 17.3 7.7 53   6 17 15.0 99.38      
19:00 15.7 7.8 59   8 9 15.0 99.45      
20:00 14.0 7.4 64   11 13 15.0 99.49      
21:00 12.8 7.3 69   12 13 15.0 99.52      
22:00 11.7 7.1 73   11 11 15.0 99.50      
23:00 9.6 6.5 81   8 7 15.0 99.45      

Notes on Data Quality.

Legend

  • E = Estimated
  • M = Missing
  • NA = Not Available*
  • [empty] = Indicates an unobserved value
Date modified: